| time (UTC) | temp F | wind direction | speed MPH | gust MPH | rain 1hr in | rain 24hr in | rain mn in | humidity % | barometer mb |
| 20260503224549 | 67 | 329 | 11.0 | 16.0 | 0.00 | 0.01 | 0.00 | 26 | 1002.6 |
| 20260503223525 | 67 | 327 | 9.0 | 15.0 | 0.00 | 0.01 | 0.00 | 25 | 1002.5 |
| 20260503222523 | 67 | 323 | 8.0 | 14.0 | 0.00 | 0.01 | 0.00 | 25 | 1002.4 |
| 20260503221520 | 67 | 326 | 9.0 | 15.0 | 0.00 | 0.01 | 0.00 | 26 | 1002.4 |
| 20260503220518 | 68 | 325 | 7.0 | 15.0 | 0.00 | 0.01 | 0.00 | 26 | 1002.4 |
| 20260503215534 | 67 | 328 | 7.0 | 14.0 | 0.00 | 0.01 | 0.00 | 27 | 1002.4 |
| 20260503214531 | 67 | 327 | 5.0 | 11.0 | 0.00 | 0.01 | 0.00 | 28 | 1002.4 |
| 20260503213528 | 68 | 325 | 12.0 | 18.0 | 0.00 | 0.01 | 0.00 | 28 | 1002.5 |
| 20260503212546 | 68 | 323 | 8.0 | 14.0 | 0.00 | 0.01 | 0.00 | 30 | 1002.7 |
| 20260503211543 | 68 | 333 | 11.0 | 19.0 | 0.00 | 0.01 | 0.00 | 32 | 1002.6 |
| 20260503210521 | 67 | 314 | 8.0 | 17.0 | 0.00 | 0.01 | 0.00 | 33 | 1002.8 |
| 20260503205517 | 68 | 324 | 7.0 | 17.0 | 0.00 | 0.01 | 0.00 | 32 | 1002.6 |
| 20260503204535 | 68 | 332 | 11.0 | 17.0 | 0.00 | 0.01 | 0.00 | 32 | 1002.5 |
| 20260503203532 | 67 | 315 | 7.0 | 15.0 | 0.00 | 0.01 | 0.00 | 30 | 1002.6 |
| 20260503202530 | 68 | 335 | 9.0 | 15.0 | 0.00 | 0.01 | 0.00 | 32 | 1002.7 |
| 20260503201607 | 68 | 330 | 10.0 | 15.0 | 0.00 | 0.01 | 0.00 | 32 | 1002.8 |
| 20260503200524 | 67 | 327 | 9.0 | 13.0 | 0.00 | 0.01 | 0.00 | 31 | 1002.8 |
| 20260503195521 | 67 | 324 | 6.0 | 14.0 | 0.00 | 0.01 | 0.00 | 30 | 1002.8 |
| 20260503194518 | 67 | 326 | 11.0 | 18.0 | 0.00 | 0.01 | 0.00 | 31 | 1003.1 |
| 20260503193515 | 67 | 330 | 10.0 | 16.0 | 0.00 | 0.01 | 0.00 | 34 | 1003.2 |
| 20260503192533 | 67 | 320 | 8.0 | 20.0 | 0.00 | 0.01 | 0.00 | 35 | 1003.2 |
| 20260503191610 | 67 | 330 | 11.0 | 16.0 | 0.00 | 0.01 | 0.00 | 36 | 1003.2 |
| 20260503190527 | 67 | 311 | 7.0 | 14.0 | 0.00 | 0.01 | 0.00 | 39 | 1003.1 |
| 20260503185545 | 66 | 321 | 8.0 | 12.0 | 0.00 | 0.01 | 0.00 | 41 | 1003.2 |
| 20260503184522 | 67 | 326 | 9.0 | 17.0 | 0.00 | 0.01 | 0.00 | 41 | 1003.2 |
| 20260503183519 | 66 | 318 | 6.0 | 13.0 | 0.00 | 0.01 | 0.00 | 40 | 1003.3 |
| 20260503182517 | 66 | 318 | 10.0 | 17.0 | 0.00 | 0.01 | 0.00 | 41 | 1003.3 |
| 20260503181534 | 65 | 328 | 10.0 | 16.0 | 0.00 | 0.01 | 0.00 | 41 | 1003.6 |
| 20260503180531 | 65 | 320 | 7.0 | 12.0 | 0.00 | 0.01 | 0.00 | 41 | 1003.5 |
| 20260503175529 | 66 | 339 | 8.0 | 14.0 | 0.00 | 0.01 | 0.00 | 39 | 1003.7 |
| 20260503174525 | 65 | 323 | 9.0 | 14.0 | 0.00 | 0.01 | 0.00 | 40 | 1003.7 |
| 20260503173522 | 65 | 324 | 7.0 | 12.0 | 0.00 | 0.01 | 0.00 | 41 | 1003.6 |
| 20260503172540 | 65 | 327 | 7.0 | 11.0 | 0.00 | 0.01 | 0.00 | 41 | 1003.5 |
| 20260503171517 | 66 | 322 | 11.0 | 17.0 | 0.00 | 0.01 | 0.00 | 41 | 1003.7 |
| 20260503170534 | 65 | 332 | 9.0 | 13.0 | 0.00 | 0.01 | 0.00 | 43 | 1003.6 |
| 20260503150521 | 59 | 316 | 7.0 | 11.0 | 0.00 | 0.01 | 0.00 | 51 | 1003.8 |
| 20260503130527 | 51 | 309 | 3.0 | 4.0 | 0.00 | 0.01 | 0.00 | 70 | 1003.9 |
| 20260503110535 | 41 | 350 | 4.0 | 6.0 | 0.00 | 0.01 | 0.00 | 95 | 1003.8 |
| 20260503081528 | 46 | 346 | 4.0 | 6.0 | 0.00 | 0.01 | 0.00 | 82 | 1004.9 |
| 20260503080525 | 46 | 343 | 5.0 | 7.0 | 0.00 | 0.01 | 0.00 | 81 | 1005.1 |
| 20260503072534 | 47 | 340 | 4.0 | 5.0 | 0.00 | 0.01 | 0.00 | 83 | 1005.5 |
| 20260503071531 | 47 | 339 | 4.0 | 5.0 | 0.00 | 0.01 | 0.00 | 80 | 1005.5 |
| 20260503070529 | 47 | 343 | 4.0 | 6.0 | 0.00 | 0.01 | 0.00 | 77 | 1005.5 |
| 20260503054527 | 51 | 322 | 6.0 | 7.0 | 0.00 | 0.01 | 0.00 | 79 | 1006.7 |
| 20260503053524 | 52 | 322 | 5.0 | 7.0 | 0.00 | 0.01 | 0.00 | 76 | 1006.8 |
| 20260503052522 | 52 | 310 | 4.0 | 6.0 | 0.01 | 0.01 | 0.00 | 77 | 1006.8 |
| 20260503050516 | 53 | 323 | 4.0 | 5.0 | 0.01 | 0.01 | 0.00 | 72 | 1007.1 |
| 20260503045533 | 55 | 322 | 4.0 | 6.0 | 0.01 | 0.01 | 0.01 | 64 | 1007.4 |
| 20260503044530 | 55 | 280 | 4.0 | 7.0 | 0.01 | 0.01 | 0.01 | 59 | 1007.6 |
| 20260503043528 | 55 | 320 | 5.0 | 8.0 | 0.00 | 0.00 | 0.00 | 62 | 1007.8 |
| 20260503042525 | 56 | 330 | 5.0 | 8.0 | 0.00 | 0.00 | 0.00 | 59 | 1007.8 |
| 20260503041522 | 56 | 315 | 4.0 | 6.0 | 0.00 | 0.00 | 0.00 | 55 | 1007.8 |
| 20260503040519 | 56 | 319 | 4.0 | 6.0 | 0.00 | 0.00 | 0.00 | 54 | 1007.8 |
| 20260503035516 | 56 | 319 | 5.0 | 6.0 | 0.00 | 0.00 | 0.00 | 54 | 1007.8 |
| 20260503034533 | 56 | 312 | 4.0 | 6.0 | 0.00 | 0.00 | 0.00 | 56 | 1008.0 |
| 20260503033531 | 55 | 313 | 4.0 | 6.0 | 0.00 | 0.00 | 0.00 | 56 | 1008.1 |
| 20260503032528 | 55 | 315 | 5.0 | 7.0 | 0.00 | 0.00 | 0.00 | 58 | 1008.1 |
| 20260503031525 | 56 | 314 | 4.0 | 6.0 | 0.00 | 0.00 | 0.00 | 55 | 1008.2 |
| 20260503030523 | 56 | 321 | 4.0 | 6.0 | 0.00 | 0.00 | 0.00 | 53 | 1008.3 |
| 20260503025520 | 56 | 318 | 3.0 | 5.0 | 0.00 | 0.00 | 0.00 | 53 | 1008.4 |
| 20260503024517 | 55 | 321 | 5.0 | 8.0 | 0.00 | 0.00 | 0.00 | 61 | 1008.5 |
| 20260503023534 | 56 | 320 | 4.0 | 6.0 | 0.00 | 0.00 | 0.00 | 53 | 1008.5 |
| 20260503022532 | 57 | 317 | 4.0 | 5.0 | 0.00 | 0.00 | 0.00 | 50 | 1008.8 |
| 20260503021550 | 56 | 309 | 3.0 | 5.0 | 0.00 | 0.00 | 0.00 | 52 | 1008.8 |
| 20260503020526 | 56 | 305 | 3.0 | 6.0 | 0.00 | 0.00 | 0.00 | 56 | 1008.7 |
| 20260503015523 | 56 | 318 | 6.0 | 7.0 | 0.00 | 0.00 | 0.00 | 53 | 1008.7 |
| 20260503014520 | 55 | 312 | 5.0 | 7.0 | 0.00 | 0.00 | 0.00 | 57 | 1008.7 |
| 20260503013518 | 57 | 325 | 5.0 | 8.0 | 0.00 | 0.00 | 0.00 | 55 | 1008.8 |
| 20260503012535 | 58 | 315 | 4.0 | 5.0 | 0.00 | 0.00 | 0.00 | 48 | 1008.8 |
| 20260503011533 | 58 | 302 | 3.0 | 5.0 | 0.00 | 0.00 | 0.00 | 47 | 1008.9 |
| 20260503010530 | 58 | 314 | 4.0 | 5.0 | 0.00 | 0.00 | 0.00 | 47 | 1008.9 |
| 20260503005528 | 58 | 322 | 4.0 | 6.0 | 0.00 | 0.00 | 0.00 | 47 | 1008.9 |
| 20260503004523 | 59 | 308 | 3.0 | 5.0 | 0.00 | 0.00 | 0.00 | 44 | 1009.1 |
| 20260503003521 | 59 | 302 | 3.0 | 4.0 | 0.00 | 0.00 | 0.00 | 44 | 1009.1 |
| 20260503002538 | 60 | 298 | 3.0 | 4.0 | 0.00 | 0.00 | 0.00 | 42 | 1009.2 |
| 20260503001516 | 60 | 303 | 3.0 | 5.0 | 0.00 | 0.00 | 0.00 | 42 | 1009.3 |
| 20260503000533 | 60 | 299 | 3.0 | 5.0 | 0.00 | 0.00 | 0.00 | 41 | 1009.3 |
| 20260502235530 | 60 | 275 | 3.0 | 6.0 | 0.00 | 0.00 | 0.00 | 39 | 1009.4 |
| 20260502234527 | 60 | 269 | 3.0 | 6.0 | 0.00 | 0.00 | 0.00 | 39 | 1009.5 |
| 20260502233524 | 60 | 277 | 3.0 | 4.0 | 0.00 | 0.00 | 0.00 | 40 | 1009.5 |
| 20260502232522 | 60 | 290 | 4.0 | 6.0 | 0.00 | 0.00 | 0.00 | 38 | 1009.7 |
| 20260502231519 | 60 | 263 | 3.0 | 6.0 | 0.00 | 0.00 | 0.00 | 39 | 1009.8 |
| 20260502230536 | 61 | 292 | 3.0 | 5.0 | 0.00 | 0.00 | 0.00 | 38 | 1009.9 |
| 20260502225533 | 60 | 299 | 4.0 | 6.0 | 0.00 | 0.00 | 0.00 | 38 | 1009.9 |